Overview Statistics Trail Chart Weather Telemetry Raw packets
 

This is the latest recevied weather packets stored in our database for station/object NK7E-2. If no packets are shown the sender has not sent any weather packets the latest 10 day(s).

<< 7 8 9 10 11 12 13 >>
Time Temp. Humidity Pressure Rain* Wind** Luminosity Snow
1788335427 24.44° C 58% 1028.2 hPa 0 mm - - -
1788334816 25° C 57% 1028.3 hPa 0 mm - - -
1788334216 25° C 56% 1028.2 hPa 0 mm - - -
1788333616 25.56° C 54% 1028.2 hPa 0 mm - - -
1788333016 25.56° C 55% 1028.1 hPa 0 mm - - -
1788332416 25.56° C 54% 1028 hPa 0 mm - - -
1788331816 26.11° C 54% 1028 hPa 0 mm - - -
1788331216 26.11° C 54% 1028 hPa 0 mm - - -
1788330616 26.11° C 55% 1028 hPa 0 mm - - -
1788330016 25.56° C 55% 1027.8 hPa 0 mm - - -
1788329416 26.11° C 55% 1028 hPa 0 mm - - -
1788328816 26.11° C 56% 1028.1 hPa 0 mm - - -
1788328216 25.56° C 57% 1028.2 hPa 0 mm - - -
1788327616 25° C 59% 1028 hPa 0 mm - - -
1788327016 25° C 62% 1028 hPa 0 mm - - -
1788326416 25.56° C 59% 1028.1 hPa 0 mm - - -
1788325816 25.56° C 58% 1027.8 hPa 0 mm - - -
1788325216 25.56° C 58% 1027.8 hPa 0 mm - - -
1788324616 25.56° C 59% 1027.9 hPa 0 mm - - -
1788324016 26.11° C 58% 1027.8 hPa 0 mm - - -
1788323416 26.11° C 56% 1027.5 hPa 0 mm - - -
1788322816 26.67° C 56% 1027.8 hPa 0 mm - - -
1788322216 27.22° C 54% 1027.7 hPa 0 mm - - -
1788321616 27.22° C 53% 1027.3 hPa 0 mm - - -
1788321016 27.78° C 52% 1027.2 hPa 0 mm - - -

* Rain latest hour (hover to see other rain measurements)
** Current wind speed in m/s (hover to see current wind gust speed)